FW4012 Weather Reports


Display with metric or nautical units.
time (UTC)temp
F
wind
direction
speed
MPH
gust
MPH
rain 1hr
in
rain 24hr
in
rain mn
in
humidity
%
barometer
mb
20260831080225 78 44 0.0 3.0 0.00 0.00 0.00 69 1014.8
20260831075758 77 273 1.0 6.0 0.00 0.00 0.00 68 1014.7
20260831075239 77 355 2.0 6.0 0.00 0.00 0.00 69 1014.8
20260831074752 77 319 2.0 5.0 0.00 0.00 0.00 68 1014.6
20260831074241 77 319 3.0 4.0 0.00 0.00 0.00 70 1014.8
20260831073741 77 355 2.0 5.0 0.00 0.00 0.00 69 1014.7
20260831073250 76 292 2.0 5.0 0.00 0.00 0.00 69 1014.7
20260831072739 76 5 2.0 6.0 0.00 0.00 0.00 70 1014.4
20260831072239 76 9 2.0 8.0 0.00 0.00 0.00 72 1014.5
20260831071725 75 17 1.0 8.0 0.00 0.00 0.00 71 1014.5
20260831071248 75 33 3.0 5.0 0.00 0.00 0.00 71 1014.5
20260831070737 75 333 1.0 6.0 0.00 0.00 0.00 71 1014.6
20260831070237 75 336 2.0 6.0 0.00 0.00 0.00 71 1014.6
20260831065735 75 340 4.0 6.0 0.00 0.00 0.00 73 1014.6
20260831065237 74 331 1.0 4.0 0.00 0.00 0.00 73 1014.6
20260831064723 74 355 0.0 0.0 0.00 0.00 0.00 75 1014.6
20260831064241 74 355 0.0 2.0 0.00 0.00 0.00 75 1014.5
20260831063748 74 355 0.0 2.0 0.00 0.00 0.00 77 1014.6
20260831063240 73 355 0.0 5.0 0.00 0.00 0.00 77 1014.6
20260831062744 73 355 2.0 5.0 0.00 0.00 0.00 78 1014.5
20260831062240 72 326 1.0 3.0 0.00 0.00 0.00 80 1014.6
20260831061739 72 326 1.0 2.0 0.00 0.00 0.00 80 1014.6
20260831061226 71 323 0.0 2.0 0.00 0.00 0.00 82 1014.6
20260831060738 71 323 0.0 2.0 0.00 0.00 0.00 83 1014.6
20260831060246 70 322 0.0 3.0 0.00 0.00 0.00 84 1014.6
20260831055746 69 322 2.0 3.0 0.00 0.00 0.00 85 1014.5
20260831055234 69 323 2.0 3.0 0.00 0.00 0.00 86 1014.6
20260831054729 68 323 2.0 3.0 0.00 0.00 0.00 87 1014.5
20260831054303 67 322 1.0 3.0 0.00 0.00 0.00 87 1014.6
20260831053734 67 322 1.0 3.0 0.00 0.00 0.00 87 1014.5
20260831053229 66 322 1.0 2.0 0.00 0.00 0.00 87 1014.5
20260831052739 66 322 1.0 3.0 0.00 0.00 0.00 87 1014.5
20260831052252 66 322 2.0 5.0 0.00 0.00 0.00 87 1014.4
20260831051748 66 321 1.0 5.0 0.00 0.00 0.00 87 1014.3
20260831051238 66 297 2.0 5.0 0.00 0.00 0.00 87 1014.3
20260831050738 66 314 1.0 3.0 0.00 0.00 0.00 87 1014.3
20260831050238 66 314 2.0 4.0 0.00 0.00 0.00 87 1014.3
20260831045745 66 315 2.0 4.0 0.00 0.00 0.00 87 1014.2
20260831045239 66 296 1.0 3.0 0.00 0.00 0.00 87 1014.3
20260831044751 66 289 1.0 3.0 0.00 0.00 0.00 86 1014.2
20260831044237 66 344 1.0 3.0 0.00 0.00 0.00 86 1014.2
20260831043743 66 344 0.0 3.0 0.00 0.00 0.00 86 1014.2
20260831043233 66 344 1.0 2.0 0.00 0.00 0.00 86 1014.2
20260831042729 66 344 0.0 3.0 0.00 0.00 0.00 86 1014.2
20260831042237 66 344 1.0 3.0 0.00 0.00 0.00 86 1014.3
20260831041729 66 329 1.0 6.0 0.00 0.00 0.00 86 1014.4
20260831041245 66 329 3.0 6.0 0.00 0.00 0.00 86 1014.4
20260831040734 66 314 2.0 4.0 0.00 0.00 0.00 86 1014.3
20260831040225 67 306 0.0 0.0 0.00 0.00 0.00 86 1014.3
20260831035751 67 306 0.0 0.0 0.00 0.00 0.00 85 1014.3
20260831035259 67 306 0.0 0.0 0.00 0.00 0.00 85 1014.2
20260831034738 67 306 0.0 1.0 0.00 0.00 0.00 85 1014.2
20260831034224 67 306 0.0 2.0 0.00 0.00 0.00 85 1014.2
20260831033724 68 306 1.0 2.0 0.00 0.00 0.00 85 1014.2
20260831033240 68 306 0.0 2.0 0.00 0.00 0.00 84 1014.3
20260831032751 68 306 1.0 2.0 0.00 0.00 0.00 84 1014.4
20260831032306 68 306 0.0 0.0 0.00 0.00 0.00 83 1014.5
20260831031740 69 306 0.0 0.0 0.00 0.00 0.00 83 1014.4
20260831031228 69 306 0.0 0.0 0.00 0.00 0.00 83 1014.4
20260831030740 69 306 0.0 0.0 0.00 0.00 0.00 83 1014.5
20260831030239 69 306 0.0 1.0 0.00 0.00 0.00 83 1014.5
20260831025748 69 306 0.0 2.0 0.00 0.00 0.00 83 1014.5
20260831025251 69 306 1.0 4.0 0.00 0.00 0.00 83 1014.6
20260831024800 69 306 2.0 5.0 0.00 0.00 0.00 83 1014.5
20260831024223 68 301 3.0 5.0 0.00 0.00 0.00 84 1014.6
20260831023745 68 337 3.0 4.0 0.00 0.00 0.00 84 1014.5
20260831023236 68 323 3.0 5.0 0.00 0.00 0.00 85 1014.5
20260831022751 68 342 3.0 4.0 0.00 0.00 0.00 85 1014.5
20260831022235 68 320 3.0 4.0 0.00 0.00 0.00 86 1014.5
20260831021734 67 319 2.0 3.0 0.00 0.00 0.00 86 1014.4
20260831021225 67 319 1.0 3.0 0.00 0.00 0.00 86 1014.4
20260831020740 67 319 0.0 0.0 0.00 0.00 0.00 86 1014.5
20260831020223 68 319 0.0 0.0 0.00 0.00 0.00 85 1014.5
20260831015739 68 319 0.0 0.0 0.00 0.00 0.00 85 1014.5
20260831015245 68 319 0.0 0.0 0.00 0.00 0.00 85 1014.5
20260831014758 68 319 0.0 0.0 0.00 0.00 0.00 85 1014.6
20260831014228 68 319 0.0 2.0 0.00 0.00 0.00 85 1014.7
20260831013740 68 319 0.0 2.0 0.00 0.00 0.00 84 1014.6
20260831013248 69 319 0.0 3.0 0.00 0.00 0.00 85 1014.7
20260831012741 69 319 2.0 3.0 0.00 0.00 0.00 85 1014.7
20260831012250 69 319 1.0 3.0 0.00 0.00 0.00 85 1014.7
20260831011739 69 319 2.0 3.0 0.00 0.00 0.00 84 1014.8
20260831011251 69 321 1.0 3.0 0.00 0.00 0.00 84 1014.7
20260831010726 69 321 1.0 3.0 0.00 0.00 0.00 84 1014.7
20260831010237 69 321 0.0 1.0 0.00 0.00 0.00 84 1014.6
20260831005749 69 321 0.0 1.0 0.00 0.00 0.00 84 1014.6
20260831005237 69 321 0.0 3.0 0.00 0.00 0.00 84 1014.6
20260831004748 69 321 1.0 3.0 0.00 0.00 0.00 83 1014.6
20260831004238 69 321 2.0 4.0 0.00 0.00 0.00 83 1014.7
20260831003725 70 330 3.0 4.0 0.00 0.00 0.00 83 1014.6
20260831003306 70 321 2.0 4.0 0.00 0.00 0.00 83 1014.6
20260831002735 70 319 0.0 1.0 0.00 0.00 0.00 83 1014.6
20260831002234 70 319 0.0 1.0 0.00 0.00 0.00 83 1014.7
20260831001746 70 319 0.0 1.0 0.00 0.00 0.00 83 1014.7
20260831001235 70 319 0.0 0.0 0.00 0.00 0.00 83 1014.8
20260831000751 70 319 0.0 2.0 0.00 0.00 0.00 83 1014.8
20260831000237 70 319 1.0 2.0 0.00 0.00 0.00 82 1014.9
20260830235733 70 319 0.0 1.0 0.00 0.00 0.00 82 1014.9
20260830235227 70 320 0.0 1.0 0.00 0.00 0.00 82 1014.8
20260830234802 70 320 0.0 3.0 0.00 0.00 0.00 83 1014.9
20260830234240 70 320 0.0 3.0 0.00 0.00 0.00 82 1015.0
20260830233723 70 319 1.0 3.0 0.00 0.00 0.00 82 1014.9
20260830233239 70 319 2.0 3.0 0.00 0.00 0.00 82 1014.9
20260830232809 70 319 1.0 2.0 0.00 0.00 0.00 82 1015.0
20260830232231 70 319 0.0 2.0 0.00 0.00 0.00 82 1014.9
20260830231724 70 319 0.0 2.0 0.00 0.00 0.00 83 1014.9
20260830231245 70 319 1.0 2.0 0.00 0.00 0.00 82 1014.9
20260830230737 70 319 0.0 1.0 0.00 0.00 0.00 82 1014.9
20260830230225 70 319 0.0 1.0 0.00 0.00 0.00 82 1014.9
20260830225747 70 319 0.0 2.0 0.00 0.00 0.00 82 1014.9
20260830225225 70 319 1.0 3.0 0.00 0.00 0.00 81 1015.0
20260830224737 71 319 1.0 3.0 0.00 0.00 0.00 81 1015.1
20260830224230 71 319 1.0 2.0 0.00 0.00 0.00 80 1015.0
20260830223738 71 319 0.0 2.0 0.00 0.00 0.00 80 1015.1
20260830223240 71 319 1.0 2.0 0.00 0.00 0.00 79 1015.1
20260830222736 72 319 0.0 2.0 0.00 0.00 0.00 79 1015.0
20260830222237 72 319 0.0 3.0 0.00 0.00 0.00 79 1015.0
20260830221736 71 319 1.0 3.0 0.00 0.00 0.00 78 1015.0
20260830221223 71 319 1.0 3.0 0.00 0.00 0.00 79 1015.1
20260830220738 70 319 1.0 3.0 0.00 0.00 0.00 80 1015.0
20260830220239 70 319 2.0 3.0 0.00 0.00 0.00 80 1014.9
20260830215729 70 319 1.0 3.0 0.00 0.00 0.00 82 1014.9
20260830215300 70 319 1.0 3.0 0.00 0.00 0.00 82 1014.8
20260830214726 70 319 0.0 0.0 0.00 0.00 0.00 83 1014.9
20260830214248 70 319 0.0 0.0 0.00 0.00 0.00 82 1014.8
20260830213737 70 319 0.0 0.0 0.00 0.00 0.00 83 1014.8
20260830213237 70 319 0.0 0.0 0.00 0.00 0.00 82 1014.8
20260830212726 69 319 0.0 0.0 0.00 0.00 0.00 82 1014.7
20260830212249 69 319 0.0 0.0 0.00 0.00 0.00 83 1014.8
20260830211742 69 321 0.0 0.0 0.00 0.00 0.00 83 1014.5
20260830211238 69 322 0.0 0.0 0.00 0.00 0.00 83 1014.6
20260830210738 69 322 0.0 0.0 0.00 0.00 0.00 83 1014.6
20260830210225 69 322 0.0 0.0 0.00 0.00 0.00 83 1014.7
20260830205725 69 322 0.0 0.0 0.00 0.00 0.00 83 1014.6
20260830205259 69 322 0.0 0.0 0.00 0.00 0.00 83 1014.6
20260830204737 69 322 0.0 0.0 0.00 0.00 0.00 83 1014.6
20260830204224 69 322 0.0 0.0 0.00 0.00 0.00 83 1014.6
20260830203728 69 322 0.0 0.0 0.00 0.00 0.00 83 1014.6
20260830203230 69 322 0.0 0.0 0.00 0.00 0.00 83 1014.6
20260830202742 69 322 0.0 0.0 0.00 0.00 0.00 83 1014.6
20260830202243 69 322 0.0 0.0 0.00 0.00 0.00 82 1014.6
20260830201808 69 322 0.0 0.0 0.00 0.00 0.00 82 1014.6
20260830201226 69 322 0.0 0.0 0.00 0.00 0.00 82 1014.6
20260830200738 69 322 0.0 0.0 0.00 0.00 0.00 82 1014.6
20260830200230 69 322 0.0 0.0 0.00 0.00 0.00 81 1014.6
20260830195802 69 322 0.0 0.0 0.00 0.00 0.00 81 1014.5
20260830195241 70 322 0.0 0.0 0.00 0.00 0.00 81 1014.6
20260830194746 70 322 0.0 0.0 0.00 0.00 0.00 81 1014.6
20260830194247 70 322 0.0 0.0 0.00 0.00 0.00 81 1014.6
20260830193734 70 322 0.0 0.0 0.00 0.00 0.00 80 1014.5
20260830193228 70 322 0.0 0.0 0.00 0.00 0.00 80 1014.5
20260830192749 71 322 0.0 0.0 0.00 0.00 0.00 80 1014.5
20260830192238 71 322 0.0 0.0 0.00 0.00 0.00 80 1014.4
20260830191739 71 322 0.0 0.0 0.00 0.00 0.00 79 1014.4
20260830191256 71 322 0.0 0.0 0.00 0.00 0.00 79 1014.3
20260830190734 71 322 0.0 0.0 0.00 0.00 0.00 79 1014.4
20260830190225 72 322 0.0 0.0 0.00 0.00 0.00 78 1014.4
20260830185752 72 322 0.0 0.0 0.00 0.00 0.00 78 1014.3
20260830185235 72 322 0.0 0.0 0.00 0.00 0.00 78 1014.3
20260830184725 72 322 0.0 0.0 0.00 0.00 0.00 77 1014.2
20260830184246 73 322 0.0 0.0 0.00 0.00 0.00 77 1014.1
20260830183743 73 322 0.0 0.0 0.00 0.00 0.00 76 1014.0
20260830183251 74 322 0.0 0.0 0.00 0.00 0.00 75 1014.0
20260830182742 74 322 0.0 0.0 0.00 0.00 0.00 74 1014.0
20260830182253 75 322 0.0 0.0 0.00 0.00 0.00 73 1014.0
20260830181733 75 322 0.0 0.0 0.00 0.00 0.00 72 1013.9
20260830181232 76 322 0.0 0.0 0.00 0.00 0.00 71 1013.9
20260830180741 77 322 0.0 0.0 0.00 0.00 0.00 69 1014.0
20260830180245 78 322 0.0 0.0 0.00 0.00 0.00 68 1013.8
20260830175741 79 322 0.0 0.0 0.00 0.00 0.00 67 1013.9
20260830175238 80 322 0.0 1.0 0.00 0.00 0.00 65 1013.8
20260830174750 80 322 0.0 3.0 0.00 0.00 0.00 63 1013.8
20260830174243 82 322 2.0 3.0 0.00 0.00 0.00 61 1013.7
20260830173811 83 301 1.0 2.0 0.00 0.00 0.00 58 1013.5
20260830173239 83 302 1.0 2.0 0.00 0.00 0.00 57 1013.5
20260830172727 84 301 1.0 2.0 0.00 0.00 0.00 55 1013.4
20260830172231 85 301 1.0 2.0 0.00 0.00 0.00 54 1013.4
20260830171724 85 301 1.0 3.0 0.00 0.00 0.00 53 1013.4
20260830171245 85 301 1.0 3.0 0.00 0.00 0.00 54 1013.4
20260830170750 85 301 2.0 3.0 0.00 0.00 0.00 52 1013.4
20260830170258 85 271 2.0 4.0 0.00 0.00 0.00 52 1013.4
20260830165724 86 288 3.0 4.0 0.00 0.00 0.00 49 1013.4
20260830165239 86 241 1.0 5.0 0.00 0.00 0.00 50 1013.4
20260830164742 86 240 0.0 5.0 0.00 0.00 0.00 49 1013.4
20260830164233 86 220 3.0 4.0 0.00 0.00 0.00 49 1013.4
20260830163726 87 176 1.0 5.0 0.00 0.00 0.00 49 1013.4
20260830163251 87 174 2.0 5.0 0.00 0.00 0.00 48 1013.5
20260830162740 86 252 3.0 5.0 0.00 0.00 0.00 48 1013.5
20260830162310 86 268 4.0 6.0 0.00 0.00 0.00 50 1013.5
20260830161738 86 237 1.0 4.0 0.00 0.00 0.00 49 1013.5
20260830161252 86 238 2.0 4.0 0.00 0.00 0.00 50 1013.5
20260830160741 85 223 2.0 3.0 0.00 0.00 0.00 51 1013.5
20260830160237 84 38 0.0 3.0 0.00 0.00 0.00 49 1013.5
20260830155727 84 84 0.0 4.0 0.00 0.00 0.00 50 1013.5
20260830155246 85 127 3.0 7.0 0.00 0.00 0.00 48 1013.6
20260830154738 86 186 2.0 7.0 0.00 0.00 0.00 48 1013.5
20260830154232 86 205 3.0 6.0 0.00 0.00 0.00 50 1013.6
20260830153802 86 175 2.0 6.0 0.00 0.00 0.00 48 1013.6
20260830153225 86 241 4.0 7.0 0.00 0.00 0.00 48 1013.7
20260830152749 86 189 4.0 7.0 0.00 0.00 0.00 49 1013.7
20260830152240 85 200 2.0 7.0 0.00 0.00 0.00 51 1013.6
20260830151749 85 191 2.0 7.0 0.00 0.00 0.00 49 1013.6
20260830151243 86 230 2.0 7.0 0.00 0.00 0.00 49 1013.7
20260830150745 85 321 4.0 7.0 0.00 0.00 0.00 49 1013.9
20260830150246 86 242 3.0 7.0 0.00 0.00 0.00 48 1013.9
20260830145804 86 248 3.0 7.0 0.00 0.00 0.00 50 1013.8
20260830145310 85 263 1.0 4.0 0.00 0.00 0.00 50 1013.8
20260830144800 85 355 2.0 4.0 0.00 0.00 0.00 49 1013.9
20260830144247 85 15 1.0 7.0 0.00 0.00 0.00 49 1013.9
20260830143742 85 276 3.0 7.0 0.00 0.00 0.00 50 1013.9
20260830143250 85 229 3.0 6.0 0.00 0.00 0.00 50 1014.0
20260830142745 85 238 4.0 7.0 0.00 0.00 0.00 48 1013.9
20260830142301 85 222 1.0 5.0 0.00 0.00 0.00 51 1014.0
20260830141738 85 157 3.0 6.0 0.00 0.00 0.00 48 1014.0
20260830141237 85 244 4.0 7.0 0.00 0.00 0.00 50 1014.1
20260830140746 86 159 2.0 4.0 0.00 0.00 0.00 47 1014.3
20260830140239 85 194 2.0 5.0 0.00 0.00 0.00 47 1014.3
20260830135747 85 218 1.0 5.0 0.00 0.00 0.00 49 1014.4
20260830135228 85 132 2.0 7.0 0.00 0.00 0.00 49 1014.4
20260830134727 84 171 2.0 10.0 0.00 0.00 0.00 51 1014.3
20260830134303 85 135 4.0 10.0 0.00 0.00 0.00 51 1014.5
20260830133749 85 144 5.0 9.0 0.00 0.00 0.00 52 1014.5
20260830133239 85 209 3.0 8.0 0.00 0.00 0.00 49 1014.5
20260830132747 85 213 4.0 9.0 0.00 0.00 0.00 51 1014.6
20260830132240 85 138 3.0 11.0 0.00 0.00 0.00 52 1014.6
20260830131735 85 218 4.0 11.0 0.00 0.00 0.00 51 1014.6
20260830131230 85 144 3.0 7.0 0.00 0.00 0.00 53 1014.6
20260830130735 85 240 2.0 8.0 0.00 0.00 0.00 53 1014.7
20260830130243 85 210 4.0 8.0 0.00 0.00 0.00 50 1014.8
20260830125729 85 199 5.0 9.0 0.00 0.00 0.00 52 1014.9
20260830125236 85 159 2.0 6.0 0.00 0.00 0.00 50 1014.9
20260830124734 85 150 3.0 6.0 0.00 0.00 0.00 55 1015.0
20260830124232 84 173 2.0 7.0 0.00 0.00 0.00 53 1014.9
20260830123730 84 144 5.0 7.0 0.00 0.00 0.00 54 1015.0
20260830123249 84 200 3.0 7.0 0.00 0.00 0.00 54 1014.9
20260830122742 84 219 4.0 6.0 0.00 0.00 0.00 54 1015.0
20260830122238 83 331 2.0 7.0 0.00 0.00 0.00 53 1015.0
20260830121736 84 236 2.0 7.0 0.00 0.00 0.00 51 1015.1
20260830121240 83 200 3.0 8.0 0.00 0.00 0.00 55 1015.1
20260830120739 84 242 3.0 11.0 0.00 0.00 0.00 55 1015.0
20260830120239 84 156 5.0 11.0 0.00 0.00 0.00 54 1015.0
20260830115750 83 189 2.0 10.0 0.00 0.00 0.00 57 1015.0
20260830115242 83 157 5.0 10.0 0.00 0.00 0.00 59 1015.1
20260830114741 82 268 1.0 8.0 0.00 0.00 0.00 56 1015.0
20260830114255 83 234 4.0 8.0 0.00 0.00 0.00 56 1015.0
20260830113752 83 125 2.0 7.0 0.00 0.00 0.00 56 1015.1
20260830113238 83 148 4.0 7.0 0.00 0.00 0.00 57 1015.1
20260830112728 83 203 1.0 8.0 0.00 0.00 0.00 59 1015.1
20260830112245 82 144 5.0 9.0 0.00 0.00 0.00 59 1015.1
20260830111724 82 150 4.0 8.0 0.00 0.00 0.00 61 1015.2
20260830111240 82 240 2.0 5.0 0.00 0.00 0.00 57 1015.3
20260830110740 82 202 2.0 7.0 0.00 0.00 0.00 60 1015.2
20260830110236 82 155 2.0 7.0 0.00 0.00 0.00 57 1015.3
20260830105801 82 137 4.0 7.0 0.00 0.00 0.00 61 1015.4
20260830105237 81 215 1.0 8.0 0.00 0.00 0.00 63 1015.4
20260830104735 81 138 5.0 9.0 0.00 0.00 0.00 59 1015.5
20260830104234 82 105 3.0 9.0 0.00 0.00 0.00 60 1015.4
20260830103801 82 212 4.0 6.0 0.00 0.00 0.00 61 1015.4
20260830103240 80 185 1.0 4.0 0.00 0.00 0.00 63 1015.5
20260830102731 81 221 2.0 5.0 0.00 0.00 0.00 61 1015.7
20260830102247 80 151 3.0 9.0 0.00 0.00 0.00 59 1015.7
20260830101730 82 157 5.0 9.0 0.00 0.00 0.00 58 1015.8
20260830101229 81 161 2.0 5.0 0.00 0.00 0.00 62 1015.8
20260830100758 81 86 2.0 5.0 0.00 0.00 0.00 60 1015.8
20260830100225 82 184 4.0 5.0 0.00 0.00 0.00 59 1015.8
20260830095750 81 138 2.0 6.0 0.00 0.00 0.00 60 1015.8
20260830095239 81 157 2.0 6.0 0.00 0.00 0.00 59 1015.9
20260830094737 80 192 2.0 9.0 0.00 0.00 0.00 64 1015.8
20260830094312 80 107 3.0 9.0 0.00 0.00 0.00 63 1015.9
20260830093802 80 211 4.0 8.0 0.00 0.00 0.00 63 1015.8
20260830093249 80 163 3.0 9.0 0.00 0.00 0.00 62 1015.9
20260830092725 79 157 4.0 9.0 0.00 0.00 0.00 65 1015.9
20260830092242 79 199 3.0 8.0 0.00 0.00 0.00 65 1016.0
20260830091741 78 133 5.0 8.0 0.00 0.00 0.00 66 1016.0
20260830091235 78 131 2.0 8.0 0.00 0.00 0.00 66 1016.0
20260830090801 78 123 4.0 8.0 0.00 0.00 0.00 67 1016.0
20260830090242 77 215 2.0 7.0 0.00 0.00 0.00 67 1016.0
20260830085750 77 176 3.0 7.0 0.00 0.00 0.00 68 1016.1
20260830085242 77 117 4.0 7.0 0.00 0.00 0.00 69 1016.1
20260830084752 77 187 0.0 5.0 0.00 0.00 0.00 68 1016.0
20260830084237 76 187 2.0 7.0 0.00 0.00 0.00 69 1016.1
20260830083749 76 137 4.0 7.0 0.00 0.00 0.00 69 1016.1
20260830083239 76 88 3.0 8.0 0.00 0.00 0.00 68 1016.0
20260830082739 76 132 6.0 8.0 0.00 0.00 0.00 69 1016.0
20260830082251 75 167 1.0 4.0 0.00 0.00 0.00 70 1016.1
20260830081734 75 105 2.0 7.0 0.00 0.00 0.00 69 1016.0
20260830081224 75 61 4.0 9.0 0.00 0.00 0.00 69 1016.0
20260830080742 75 108 6.0 9.0 0.00 0.00 0.00 69 1015.9